Location: Wanzleben
(52.0609°N, 11.4408°E)
Time: 00:48:22
(UTC+00:00)

Cosmos 1844 Rocket - Visible Passes

Search period start: 24 January 2021 00:00
Search period end: 03 February 2021 00:00
Orbit: 824 x 845 km, 71.0° (Epoch: 23 January)

Date Brightness Start Highest point End Pass type
(mag) Time Alt. Az. Time Alt. Az. Time Alt. Az.
24 Jan 2.8 17:03:11 10° SSW 17:08:44 60° ESE 17:14:18 10° NE visible
24 Jan 4.1 18:47:53 10° WSW 18:52:59 34° NW 18:56:01 20° N visible
24 Jan 5.3 20:35:56 10° NW 20:37:43 13° NNW 20:37:43 13° NNW visible
25 Jan 2.9 16:46:00 10° S 16:51:31 56° ESE 16:57:02 10° NE visible
25 Jan 4.0 18:30:31 10° WSW 18:35:42 36° NW 18:39:33 17° NNE visible
25 Jan 5.2 20:18:26 10° NW 20:21:14 14° NNW 20:21:14 14° NNW visible
26 Jan 3.0 16:28:51 10° S 16:34:19 51° ESE 16:39:47 10° NE visible
26 Jan 3.9 18:13:10 10° WSW 18:18:25 38° NW 18:23:02 13° NNE visible
26 Jan 5.1 20:00:58 10° NW 20:04:01 14° NNW 20:04:42 14° NNW visible
27 Jan 3.9 17:55:49 10° WSW 18:01:08 40° NW 18:06:27 10° NNE visible
27 Jan 5.0 19:43:29 10° WNW 19:46:40 15° NNW 19:48:07 14° N visible
28 Jan 3.8 17:38:29 10° WSW 17:43:51 42° NW 17:49:14 10° NNE visible
28 Jan 5.0 19:26:01 10° WNW 19:29:19 16° NNW 19:31:30 13° N visible
29 Jan 3.7 17:21:10 10° WSW 17:26:35 45° NW 17:32:01 10° NNE visible
29 Jan 5.0 19:08:33 10° WNW 19:11:59 16° NNW 19:14:50 12° N visible
30 Jan 3.6 17:03:51 10° SW 17:09:19 48° NW 17:14:48 10° NNE visible
30 Jan 5.0 18:51:05 10° WNW 18:54:39 17° NNW 18:58:09 10° NNE visible
30 Jan 5.5 20:39:43 10° NNW 20:39:49 10° NNW 20:39:49 10° NNW visible
31 Jan 3.5 16:46:32 10° SW 16:52:03 51° NW 16:57:34 10° NNE visible
31 Jan 4.9 18:33:37 10° WNW 18:37:18 17° NNW 18:41:00 10° NNE visible
31 Jan 5.3 20:22:22 10° NNW 20:23:06 11° N 20:23:06 11° N visible
01 Feb 3.4 16:29:14 10° SW 16:34:47 55° NW 16:40:21 10° NNE visible
01 Feb 4.9 18:16:10 10° WNW 18:19:59 18° NNW 18:23:47 10° NNE visible
01 Feb 5.3 20:04:58 10° NNW 20:06:22 11° N 20:06:22 11° N visible
02 Feb 4.8 17:58:42 10° WNW 18:02:38 19° NNW 18:06:34 10° NNE visible
02 Feb 5.2 19:47:34 10° NNW 19:49:00 11° N 19:49:37 11° N visible
